User: anonymous   Login
Location: �couen
(49.0206°N, 2.3831°E)
Time: 12:11:52
(UTC+00:00)
Language:

ATLAS 3B R/B - Orbit

View from above orbital plane
View from above orbital plane
View from above satellite
View from above satellite

Ground track
Ground track

The orbit data is extracted from the following two-line orbital elements,

1 28538U 05004B   22255.85331427 0.00000000  00000-0  00000-0 0    07
2 28538  63.8092 152.7446 0171035 338.0964  21.9036 13.43168022    06
Epoch (UTC): 12 September 2022 20:28:46
Eccentricity: 0.0171035
inclination: 63.8092°
perigee height: 969 km
apogee height: 1225 km
right ascension of ascending node: 152.7446°
argument of perigee: 338.0964°
revolutions per day: 13.43168022
mean anomaly at epoch: 21.9036°
orbit number at epoch: 0

The dashed part of the orbit path shows where the satellite is in the earth's shadow,  

DLR